Weather in Syagannakh

Russia / Sakha (Yakutia) Republic     68°22′17″N   143°37′57″E
temp.,
°C
wind,
m/s
gust,
m/s
humid.,
%
clouds,
%
prec.,
mm/h
press.,
hPa
HPBL,
m
12 may, wed
wed1223:00−4n2290100 0.1 102225
02:00−5n2297100 0.1 102236
05:00−6ne349692 0.3 102285
08:00−5ne339174 0.1 1022194
11:00−3ne228396 0.1 1021528
14:00−2ne2276100 0.1 1019811
17:00−2ene3375100 0.1 1018625
20:00−2ene3379100 0.0 1017445
13 may, thu
thu1323:00−4ne3388100 0.1 101643
02:00−4ne2489100 0.0 101576
05:00−5nne3496100 0.6 1015164
08:00−3nne4595100 0.9 1014327
11:00−2nne4489100 1.3 1014568
14:00−1nne4486100 0.2 1014633
17:00−1nne338399 0.4 1014579
20:00−1ne228289 0.1 1015183
14 may, fri
fri1423:00−3se118995 0.1 101610
02:00−4s229272 0.0 101615
05:00−7sw229617 0.0 101620
08:00−2s3490100 0.0 1017182
11:000s3474100 0.0 1016378
14:00+2s3467100 0.0 1016453
17:00+4s346315 0.0 1015542
20:00+3sse456999 0.0 1015145
15 may, sat
sat1523:000sse457670 0.0 101574
02:00−1sse447959 0.0 101550
05:00−2sse358046 0.0 101564
08:00+1sse35705 0.0 1014215
11:00+5sse44545 0.0 1013472
14:00+8sse444546 0.0 1012778
17:00+9sse344297 0.0 1011901
20:00+7sse3451100 0.0 101083
16 may, sun
sun1623:00+3s336489 0.0 101112
02:00+2sse22665 0.0 101010
05:00+2sse11640 0.0 101010
08:00+5sse11545 0.0 1010170
11:00+8s11461 0.0 1010462
14:00+11s12360 0.0 1009899
17:00+13s23310 0.0 10081501
20:00+13sse33320 0.0 10071444